Location: Asheville, NC
(35.6000°N, 82.5500°W)
Time: 17:07:52
(UTC-04:00)

EO-79 - Visible Passes

Search period start: 18 June 2018 00:00
Search period end: 28 June 2018 00:00
Orbit: 593 x 610 km, 97.9° (Epoch: 17 June)

Date Brightness Start Highest point End Pass type
(mag) Time Alt. Az. Time Alt. Az. Time Alt. Az.
18 Jun ? 01:55:17 10° N 01:57:39 32° N 01:57:39 32° N visible
19 Jun ? 02:07:04 10° N 02:09:27 29° NNW 02:09:27 29° NNW visible
20 Jun ? 00:44:06 10° NE 00:44:27 11° NE 00:44:27 11° NE visible
20 Jun ? 02:18:57 10° N 02:21:15 25° NW 02:21:15 25° NW visible
21 Jun ? 00:55:15 10° NE 00:56:15 15° NE 00:56:15 15° NE visible
21 Jun ? 02:30:55 10° NNW 02:33:02 20° NW 02:33:02 20° NW visible
22 Jun ? 01:06:35 10° NNE 01:08:03 19° NE 01:08:03 19° NE visible
22 Jun ? 02:43:02 10° NNW 02:44:50 16° NW 02:44:50 16° NW visible
23 Jun ? 01:18:02 10° NNE 01:19:50 23° NE 01:19:50 23° NE visible
23 Jun ? 02:55:26 10° NW 02:56:38 13° NW 02:56:38 13° NW visible
24 Jun ? 01:29:34 10° NNE 01:31:38 28° NNE 01:31:38 28° NNE visible
25 Jun ? 01:41:12 10° NNE 01:43:25 31° NNE 01:43:25 31° NNE visible
26 Jun ? 01:52:54 10° N 01:55:12 31° N 01:55:12 31° N visible
27 Jun ? 02:04:39 10° N 02:06:59 29° NNW 02:06:59 29° NNW visible
